COSMOS 249 DEB, 18551

Orbit data source: Space-Track

COSMOS 249 DEB, 18551 is space debris in LEO originally from a launch on Sun, 20 Oct 1968 UTC launched from the Tyuratam Missile And Space Complex (TTMTR). Debris objects in space refer to the collection of defunct objects orbiting the Earth. Examples of debris include non-operational satellites, rocket bodies, and fragments generated from explosions, collisions, or faulty payload assembly.

Loading next visibility...
Identifier
18551, 1968-091DF
Orbit
LEO
Country
Flag of CISCIS
Related business
Manufacturer
Unknown
Mission
Spacecraft
Bus & Motor
Unknown
Mass
Unknown
Launch date (UTC)
1968-10-20 (57 years ago)
Launch vehicle
Unknown
Launch site
Tyuratam Missile And Space Complex (TTMTR)
Object type
Payload
Rocket body
Debris
Shape & HBR
Unknown shape, 0.1 m
Radar Cross Section
Small (<0.1 m²)

Expand to show TLE details & history
Last TLE update: 19 hours ago

TLE from 19 hours ago
0 COSMOS 249 DEB
1 18551U 68091DF  25286.51030117  .00006811  00000-0  26775-2 0  9990
2 18551  62.2912  76.4833 0725281 134.6378 297.9846 13.38651714613499
Epoch: 2025-10-13T12:14Z
TLE epoch observation values (Epoch: 2025-10-13T12:14:50.021Z)
Latitude
53.4707°
Longitude
-84.68523°
Altitude
899.135 km
Speed
7.518 km/s
True Right ascension
08h 05m 20s
True Declination
53° 18' 33"
Sunlit
Object was in daylight at epoch
Visualization orbit readout
Latitude
Unknown
Longitude
Unknown
Altitude
Unknown
Speed
Unknown
Apparent Right ascension
Unknown
Apparent Declination
Unknown
Sunlit
N/A
Visualization observer readout
Local Sidereal Time
01:31:27
Azimuth
Unknown
Elevation
Unknown
Doppler factor
Unknown
Orbital elements
Apogee altitude
1,656.607 km
Perigee altitude
569.932 km
Semi-major axis
7,491.407 km
Eccentricity
0.07253
Inclination
62.2912°
RAAN
76.4833°
Arg. of periapsis
134.6378°
True anomaly
290.34263°
Mean anomaly
297.9846°
Eccentric anomaly
294.19406°
Mean motion
3.34733 °/min
Orbital period
107.55 mins
BSTAR
0.0026775
Loading maneuver chart data...
Computing Atmospheric mass density...
Loading historical data...
Loading historical data...
Loading historical data...
Loading historical data...
Loading historical data...
Loading historical data...
Loading historical data...

Documentation

Showing up to 5 results
|